Weather past 2 weeks in Mamoutzou, Mayotte

Now
81 °F

Scattered clouds.


Feels Like: 83 °F
Forecast: 74 / 78 °F
Wind: 25 mph from Southwest

Location: Dzaoudzi / Pamanzi Mayotte

Current Time: Sep 1, 2014 at 3:47:21 PM

Latest Report: Sep 1, 2014 at 3:00 PM


Visibility: N/A

Pressure: 29.92 "Hg

Humidity: 66%

Dew point: 68 °F

Location of MamoutzouLocation

Historic Weather in Mamoutzou — Graph

°F

Mamoutzou temperature yesterday

Maximum temperature yesterday: 84 °F (at 11:30 AM)
Minimum temperature yesterday: 73 °F (at 12:00 AM)
Average temperature yesterday: 79 °F

Past Weeks' High & Low Weather Summary

 TemperatureHumidityPressure
High86 °F (Aug 23, 11:30 AM)94% (Aug 18, 12:30 AM)30.12 "Hg (Aug 18, 12:30 AM)
Low70 °F (Aug 18, 12:00 AM)51% (Aug 18, 10:00 AM)29.86 "Hg (Aug 23, 4:30 AM)
Average78 °F74%29.98 "Hg
* Reported Aug 17 2:00 PM — Sep 1 2:30 PM, Mamoutzou, Weather by CustomWeather, © 2014

Note: Actual official high and low records may vary slightly from our data, if they occured in-between our weather recording intervals... More about our weather records

Advertising

Mamoutzou weather history for previous 24 hours

 ConditionsComfort  
Time TempWeatherWind HumidityBarometerVisibility
2:30 PM
Sep 1
81 °FScattered clouds.24 mph66%29.92 "HgN/A
2:00 PM81 °FScattered clouds.26 mph66%29.92 "HgN/A
1:30 PM82 °FScattered clouds.24 mph62%29.95 "HgN/A
1:00 PM82 °FScattered clouds.24 mph66%29.95 "HgN/A
12:30 PM82 °FScattered clouds.23 mph62%29.95 "HgN/A
12:00 PM82 °FPassing clouds.23 mph66%29.95 "HgN/A
11:30 AM82 °FScattered clouds.24 mph66%29.98 "HgN/A
11:00 AM82 °FScattered clouds.20 mph66%29.98 "HgN/A
10:00 AM81 °FScattered clouds.25 mph66%29.98 "HgN/A
9:30 AM82 °FPassing clouds.25 mph62%30.01 "HgN/A
9:00 AM81 °FPassing clouds.24 mph70%29.98 "HgN/A
8:30 AM81 °FPassing clouds.25 mph70%29.98 "HgN/A
8:00 AM79 °FPassing clouds.25 mph74%29.98 "HgN/A
7:30 AM79 °FPassing clouds.24 mph74%29.98 "HgN/A
7:00 AM77 °FPassing clouds.24 mph79%29.98 "HgN/A
6:00 AM77 °FPassing clouds.23 mph79%29.95 "HgN/A
5:30 AM77 °FPassing clouds.24 mph74%29.95 "HgN/A
5:00 AM77 °FPassing clouds.22 mph79%29.95 "HgN/A
4:30 AM77 °FPartly cloudy.23 mph79%29.95 "HgN/A
4:00 AM77 °FPartly cloudy.21 mph79%29.95 "HgN/A
3:30 AM77 °FPassing clouds.23 mph79%29.95 "HgN/A
3:00 AM77 °FPartly cloudy.23 mph79%29.95 "HgN/A
2:30 AM77 °FPassing clouds.22 mph79%29.95 "HgN/A
2:00 AM77 °FPassing clouds.23 mph83%29.95 "HgN/A
1:30 AM77 °FPartly cloudy.22 mph83%29.95 "HgN/A
1:00 AM77 °FPassing clouds.10 mph79%29.98 "HgN/A
12:30 AM77 °FPassing clouds.12 mph74%29.98 "HgN/A
12:00 AM77 °FMostly cloudy.16 mph74%29.98 "HgN/A
11:30 PM
Aug 31
77 °FPassing clouds.10 mph69%30.01 "HgN/A
11:00 PM77 °FWarm.10 mph74%30.01 "HgN/A
10:30 PM77 °FWarm.10 mph74%30.01 "HgN/A
10:00 PM77 °FWarm.14 mph74%30.01 "HgN/A
9:30 PM77 °FWarm.15 mph74%30.01 "HgN/A
9:00 PM77 °FWarm.13 mph74%30.01 "HgN/A
8:30 PM77 °FWarm.13 mph74%30.01 "HgN/A
8:00 PM77 °FWarm.12 mph74%29.98 "HgN/A
7:30 PM77 °FWarm.9 mph74%29.98 "HgN/A
7:00 PM77 °FWarm.10 mph74%29.98 "HgN/A
6:30 PM77 °FWarm.10 mph74%29.98 "HgN/A
6:00 PM79 °FPassing clouds.9 mph70%29.98 "HgN/A
5:30 PM79 °FPassing clouds.8 mph70%29.98 "HgN/A
5:00 PM79 °FPassing clouds.9 mph70%29.95 "HgN/A
4:38 PM81 °FPassing clouds.9 mph66%29.95 "HgN/A
4:00 PM82 °FPassing clouds.12 mph62%29.95 "HgN/A
3:30 PM82 °FPassing clouds.12 mph62%29.95 "HgN/A
3:00 PM82 °FPassing clouds.12 mph62%29.95 "HgN/A
Weather by CustomWeather, © 2014

See weather overviewHow to use our weather pages